Location: Aalen
(48.8330°N, 10.1000°E)
Time: 19:29:18
(UTC+02:00)

CAS-6 - Pass Details

Date: 06 April 2023
Orbit: 610 x 632 km, 97.9° (Epoch: 04 June)

Event Time Altitude Azimuth Distance (km) Brightness Sun altitude
Exits shadow 21:52:10 12° 60° (ENE) 1,854 ? -18.2°
Maximum altitude 21:52:26 12° 56° (NE) 1,851 ? -18.2°
Drops below altitude 10° 21:54:14 10° 32° (NNE) 2,013 ? -18.5°
Sets 21:57:40 0° 3° (N) 2,932 ? -18.9°
